This is the latest recevied weather packets stored in our database for station/object OH2TI. If no packets are shown the sender has not sent any weather packets the latest 10 day(s).
| Time | Temp. | Humidity | Pressure | Rain* | Wind** | Luminosity | Snow |
|---|---|---|---|---|---|---|---|
| 1777044825 | 11.11° C | 33% | 1001.2 hPa | - | - | - | - |
| 1777044015 | 10.56° C | 31% | 1001.2 hPa | - | - | - | - |
| 1777043145 | 11.11° C | 31% | 1001.2 hPa | - | - | - | - |
| 1777042735 | 11.11° C | 32% | 1001.4 hPa | - | - | - | - |
| 1777042270 | 11.11° C | 31% | 1001.3 hPa | - | - | - | - |
| 1777041823 | 11.67° C | 31% | 1001.3 hPa | - | - | - | - |
| 1777041060 | 11.11° C | 31% | 1001.3 hPa | - | - | - | - |
| 1777040473 | 11.11° C | 31% | 1001.3 hPa | - | - | - | - |
| 1777040030 | 11.11° C | 32% | 1001.5 hPa | - | - | - | - |
| 1777039215 | 11.11° C | 32% | 1001.4 hPa | - | - | - | - |
| 1777038723 | 11.11° C | 33% | 1001.4 hPa | - | - | - | - |
| 1777037880 | 11.11° C | 34% | 1001.5 hPa | - | - | - | - |
| 1777037450 | 11.67° C | 33% | 1001.5 hPa | - | - | - | - |
| 1777036953 | 11.11° C | 34% | 1001.6 hPa | - | - | - | - |
| 1777036480 | 11.11° C | 34% | 1001.5 hPa | - | - | - | - |
| 1777035893 | 11.67° C | 33% | 1001.5 hPa | - | - | - | - |
| 1777035073 | 11.11° C | 34% | 1001.6 hPa | - | - | - | - |
| 1777034260 | 11.11° C | 34% | 1001.4 hPa | - | - | - | - |
| 1777033650 | 12.22° C | 33% | 1001.8 hPa | - | - | - | - |
| 1777032922 | 11.67° C | 34% | 1001.8 hPa | - | - | - | - |
| 1777032065 | 11.11° C | 33% | 1001.9 hPa | - | - | - | - |
| 1777031733 | 11.11° C | 35% | 1001.8 hPa | - | - | - | - |
| 1777030973 | 11.11° C | 35% | 1001.9 hPa | - | - | - | - |
| 1777030415 | 11.11° C | 38% | 1001.9 hPa | - | - | - | - |
| 1777029725 | 11.11° C | 39% | 1002.1 hPa | - | - | - | - |
* Rain since midnight (hover to see other rain measurements)
** Current wind speed in m/s (hover to see current wind gust speed)